[[{"header":{"parameterUnit":"m.s-1","parameterCategory":1,"la1":30.2991,"la2":30.254,"lo1":-89.0895,"lo2":-89.0444,"dy":0.0017,"dx":0.0017,"nx":28,"ny":28,"refTime":"2025-06-03T09:00:00:Z","depth":0,"parameterNumber":2,"parameterNumberName":"U-component_of_WINDS"},"data":[0,0,0,0,0,0,0,0,0,0,0,0,0,0,0,0,0,0,0,0,0,0,0,0,0,0,0,0,0,0,0,0,0,0,0,0,0,0,0,0,0,0,0,0,0,0,0,0,0,0,0,0,0,0,0,0,0,0,-1.4625,-1.4626,0,-1.4663,-1.4663,-1.4664,-1.4639,-1.4638,-1.4637,-1.4636,-1.4673,-1.4675,-1.4677,0,0,0,0,0,0,0,0,0,0,0,0,0,-1.4532,-1.4534,-1.4625,-1.4626,-1.4626,-1.4663,-1.4663,-1.4664,-1.464,-1.4638,-1.4637,-1.4636,-1.4672,-1.4675,-1.4677,0,0,0,0,0,0,0,0,0,0,0,0,0,-1.4571,-1.4534,-1.4625,-1.4619,-1.4618,-1.4663,-1.4663,-1.4664,-1.464,-1.4638,-1.4637,-1.4635,-1.4671,-1.4674,-1.4677,-1.473,0,0,-1.4687,-1.4688,0,0,0,0,0,0,0,0,-1.4569,-1.4575,-1.4619,-1.4619,-1.4619,-1.4645,-1.4644,-1.4686,-1.464,-1.4632,-1.4636,-1.4634,-1.4665,-1.4668,-1.4679,-1.4731,-1.4733,-1.4687,-1.4689,-1.469,-1.4691,0,0,0,0,0,0,0,-1.4566,-1.4573,-1.464,-1.462,-1.462,-1.4614,-1.4617,-1.4652,-1.4657,-1.4632,-1.4631,-1.4636,-1.4664,-1.4676,-1.468,-1.4734,-1.4687,-1.469,-1.4691,-1.4693,-1.4831,-1.4832,0,0,0,0,0,0,-1.4564,-1.4571,-1.4639,-1.4641,-1.4589,-1.4617,-1.4621,-1.4638,-1.4657,-1.4658,-1.4637,-1.4634,-1.4672,-1.4676,-1.4681,-1.4743,-1.469,-1.4693,-1.4695,-1.4829,-1.4831,-1.4833,0,0,0,0,0,0,-1.4562,-1.4571,-1.4637,-1.4606,-1.4614,-1.462,-1.464,-1.464,-1.4651,-1.466,-1.4661,-1.4648,-1.4671,-1.4677,-1.4718,-1.4743,-1.4694,-1.4697,-1.4827,-1.483,-1.4832,-1.4867,0,0,0,0,0,0,-1.456,-1.457,-1.459,-1.4606,-1.4616,-1.4674,-1.4641,-1.4642,-1.4657,-1.4654,-1.4671,-1.4672,-1.467,-1.4713,-1.4721,-1.4747,-1.4699,-1.4824,-1.4828,-1.4831,-1.4863,-1.4871,-1.4877,0,0,0,0,0,-1.4557,-1.4598,-1.4591,-1.46,-1.4641,-1.4676,-1.4681,-1.4678,-1.4659,-1.4679,-1.4685,-1.4671,-1.474,-1.4718,-1.4726,-1.4753,-1.4823,-1.4827,-1.4831,-1.4861,-1.4869,-1.4876,0,0,0,0,0,0,-1.4584,-1.46,-1.4593,-1.4641,-1.4657,-1.4672,-1.4696,-1.4687,-1.4709,-1.4705,-1.47,-1.4704,-1.4747,-1.4755,-1.473,-1.4805,-1.4778,-1.4784,-1.4798,-1.4806,-1.4813,-1.4809,-1.4702,0,0,0,0,0,-1.4596,-1.4623,-1.4636,-1.4677,-1.4686,-1.469,-1.4705,-1.4702,-1.4718,-1.4725,-1.4733,-1.475,-1.4775,-1.4791,-1.4815,-1.4865,-1.4868,-1.4888,-1.4895,-1.49,-1.4905,-1.4931,-1.494,-1.4847,-1.4847,-1.4847,0,0,-1.462,-1.4633,-1.465,-1.4683,-1.4695,-1.4723,-1.4696,-1.4727,-1.4747,-1.4729,-1.4768,-1.4776,-1.4793,-1.4839,-1.486,-1.4847,-1.4931,-1.4905,-1.491,-1.4911,-1.4936,-1.4945,-1.4953,-1.485,-1.4849,-1.4849,0,0,-1.4678,-1.4691,-1.4727,-1.474,-1.4759,-1.4762,-1.477,-1.4787,-1.4791,-1.483,-1.4817,-1.4842,-1.4886,-1.4898,-1.4911,-1.4976,-1.4963,-1.4984,-1.5017,-1.5043,-1.505,-1.5057,-1.5078,-1.5086,-1.4989,-1.4989,-1.4989,0,-1.4706,-1.4748,-1.4746,-1.4778,-1.4792,-1.4779,-1.4814,-1.4827,-1.4853,-1.4863,-1.4849,-1.4903,-1.4914,-1.4962,-1.4978,-1.4989,-1.4998,-1.498,-1.5049,-1.5056,-1.5062,-1.5082,-1.5091,-1.4991,-1.4991,-1.499,-1.499,0,-1.478,-1.481,-1.4836,-1.4862,-1.488,-1.4913,-1.4916,-1.4935,-1.493,-1.4934,-1.4975,-1.4988,-1.5014,-1.5026,-1.5021,-1.5073,-1.5065,-1.505,-1.5023,-1.5073,-1.5092,-1.51,-1.4994,-1.4993,-1.4993,-1.4992,0,0,-1.4854,-1.488,-1.4889,-1.4901,-1.4922,-1.4944,-1.4978,-1.5004,-1.5019,-1.5038,-1.5065,-1.5103,-1.509,-1.5104,-1.5101,-1.5124,-1.5173,-1.5107,-1.5107,-1.5117,-1.523,-1.5239,-1.5249,-1.5166,-1.5168,-1.5169,-1.5228,0,-1.4913,-1.4971,-1.497,-1.5024,-1.505,-1.5039,-1.5068,-1.5083,-1.5089,-1.5112,-1.5118,-1.5144,-1.5125,-1.5134,-1.5156,-1.5162,-1.5195,-1.5158,-1.519,-1.5191,-1.5184,-1.5259,-1.5269,-1.5324,-1.5236,-1.5237,-1.5238,0,-1.4988,-1.501,-1.5066,-1.5083,-1.5094,-1.512,-1.5144,-1.5167,-1.5185,-1.5187,-1.5203,-1.5197,-1.5231,-1.5204,-1.525,-1.5224,-1.5238,-1.5243,-1.5245,-1.5246,-1.5216,-1.526,-1.5341,-1.5349,-1.525,-1.5249,-1.5248,0,-1.5034,-1.5078,-1.5117,-1.5128,-1.5149,-1.5167,-1.5177,-1.5193,-1.5209,-1.523,-1.524,-1.5265,-1.5278,-1.5297,-1.5298,-1.5279,-1.5343,-1.5317,-1.5345,-1.5345,-1.5357,-1.5356,-1.544,-1.5369,-1.5369,-1.5369,-1.5369,0,-1.5098,-1.5132,-1.5138,-1.5162,-1.52,-1.52,-1.5238,-1.5246,-1.5261,-1.5286,-1.5278,-1.5301,-1.5302,-1.5326,-1.5327,-1.5363,-1.537,-1.5372,-1.5371,-1.5371,-1.5371,-1.5378,-1.5374,-1.5371,-1.5371,-1.537,-1.537,0,-1.5155,-1.5161,-1.5203,-1.522,-1.5225,-1.5253,-1.5267,-1.529,-1.5295,-1.5327,-1.5334,-1.5342,-1.537,-1.5373,-1.5406,-1.5406,-1.545,-1.5447,-1.5444,-1.5443,-1.547,-1.5466,-1.5559,-1.5571,-1.5495,-1.5496,-1.5496,0,-1.5195,-1.5221,-1.5242,-1.5258,-1.5269,-1.5295,-1.5312,-1.5313,-1.533,-1.5353,-1.5373,-1.54,-1.5422,-1.5467,-1.5475,-1.55,-1.5495,-1.5526,-1.5499,-1.5498,-1.5494,-1.5491,-1.5493,-1.5531,-1.5532,-1.5532,-1.5533,0,-1.5263,-1.5265,-1.5289,-1.5314,-1.5334,-1.5354,-1.5373,-1.5386,-1.539,-1.541,-1.5439,-1.5456,-1.5489,-1.5516,-1.554,-1.555,-1.5542,-1.5542,-1.5549,-1.5548,-1.5545,-1.5546,-1.5456,-1.5539,-1.5538,-1.5538,-1.5538,-1.5537,-1.5311,-1.5334,-1.5352,-1.5379,-1.5394,-1.5412,-1.5434,-1.5442,-1.5466,-1.5494,-1.5494,-1.5525,-1.5542,-1.5575,-1.5586,-1.561,-1.56,-1.5611,-1.5613,-1.5616,-1.5618,-1.5543,-1.5615,-1.5615,-1.5615,-1.5615,-1.5615,0,-1.5378,-1.5389,-1.5414,-1.5441,-1.5463,-1.5455,-1.5475,-1.5493,-1.5521,-1.5539,-1.556,-1.5593,-1.562,-1.5631,-1.5656,-1.5674,-1.567,-1.568,-1.5678,-1.568,-1.5626,-1.5616,-1.5682,-1.5682,-1.5682,-1.5682,-1.5682,-1.5682,-1.5415,-1.5452,-1.5456,-1.5501,-1.5513,-1.5543,-1.5556,-1.5572,-1.5586,-1.5623,-1.5645,-1.5653,-1.5668,-1.5695,-1.5718,-1.5721,-1.573,-1.5741,-1.5741,-1.5691,-1.5684,-1.5677,-1.5668,-1.5743,-1.5743,-1.5793,-1.5793,-1.5793]},{"header":{"parameterUnit":"m.s-1","parameterCategory":1,"la1":30.2991,"la2":30.254,"lo1":-89.0895,"lo2":-89.0444,"dy":0.0017,"dx":0.0017,"nx":28,"ny":28,"refTime":"2025-06-03T09:00:00:Z","depth":0,"parameterNumber":3,"parameterNumberName":"V-component_of_WINDS"},"data":[0,0,0,0,0,0,0,0,0,0,0,0,0,0,0,0,0,0,0,0,0,0,0,0,0,0,0,0,0,0,0,0,0,0,0,0,0,0,0,0,0,0,0,0,0,0,0,0,0,0,0,0,0,0,0,0,0,0,-0.2395,-0.2396,0,-0.2443,-0.2444,-0.2444,-0.2505,-0.2506,-0.2506,-0.2507,-0.2558,-0.2558,-0.2559,0,0,0,0,0,0,0,0,0,0,0,0,0,-0.2357,-0.2357,-0.2395,-0.2396,-0.2396,-0.2443,-0.2444,-0.2444,-0.2504,-0.2506,-0.2507,-0.2508,-0.2558,-0.2558,-0.2559,0,0,0,0,0,0,0,0,0,0,0,0,0,-0.2386,-0.2357,-0.2395,-0.2432,-0.2436,-0.2443,-0.2444,-0.2444,-0.2504,-0.2506,-0.2507,-0.2508,-0.2557,-0.2558,-0.2559,-0.2534,0,0,-0.2561,-0.2561,0,0,0,0,0,0,0,0,-0.2384,-0.2387,-0.2426,-0.2429,-0.2434,-0.2469,-0.2449,-0.2475,-0.2504,-0.2478,-0.2507,-0.2509,-0.2527,-0.253,-0.2536,-0.2536,-0.2539,-0.2561,-0.2561,-0.2562,-0.2562,0,0,0,0,0,0,0,-0.2382,-0.2385,-0.2414,-0.2426,-0.2431,-0.2446,-0.2452,-0.2454,-0.2494,-0.248,-0.2485,-0.249,-0.253,-0.2536,-0.2538,-0.2539,-0.2561,-0.2561,-0.2562,-0.2562,-0.2522,-0.2521,0,0,0,0,0,0,-0.2374,-0.2383,-0.2413,-0.2416,-0.2412,-0.2446,-0.2452,-0.2456,-0.2494,-0.2501,-0.2488,-0.2492,-0.2534,-0.2537,-0.254,-0.2514,-0.2562,-0.2562,-0.2563,-0.2523,-0.2522,-0.252,0,0,0,0,0,0,-0.2373,-0.2376,-0.2411,-0.2401,-0.2406,-0.2445,-0.2449,-0.2457,-0.2463,-0.25,-0.2508,-0.2487,-0.2535,-0.2539,-0.2535,-0.2516,-0.2562,-0.2563,-0.2525,-0.2523,-0.2521,-0.2461,0,0,0,0,0,0,-0.2372,-0.2375,-0.2366,-0.24,-0.2406,-0.2404,-0.2448,-0.2456,-0.2463,-0.2469,-0.2501,-0.2508,-0.2536,-0.2534,-0.2536,-0.2518,-0.2564,-0.2527,-0.2524,-0.2521,-0.2465,-0.2457,-0.245,0,0,0,0,0,-0.237,-0.2348,-0.2365,-0.2369,-0.2396,-0.2403,-0.2407,-0.244,-0.2462,-0.2453,-0.2477,-0.2507,-0.2518,-0.2533,-0.2536,-0.2518,-0.2528,-0.2525,-0.2522,-0.2468,-0.2458,-0.245,0,0,0,0,0,0,-0.2311,-0.2353,-0.2373,-0.236,-0.2378,-0.2413,-0.2403,-0.2429,-0.2441,-0.2446,-0.2487,-0.2493,-0.2484,-0.2501,-0.2517,-0.2496,-0.2528,-0.2525,-0.2486,-0.2477,-0.247,-0.2466,-0.2564,0,0,0,0,0,-0.2296,-0.2298,-0.2335,-0.232,-0.2328,-0.2364,-0.2368,-0.2392,-0.2412,-0.242,-0.2444,-0.2462,-0.247,-0.2475,-0.2484,-0.2467,-0.2475,-0.2457,-0.2449,-0.2443,-0.244,-0.2433,-0.2425,-0.2509,-0.2509,-0.2509,0,0,-0.2266,-0.2289,-0.2288,-0.2309,-0.2325,-0.2327,-0.237,-0.237,-0.2372,-0.242,-0.2418,-0.2436,-0.2459,-0.2449,-0.2445,-0.2462,-0.2419,-0.2439,-0.2434,-0.2434,-0.2429,-0.2421,-0.2414,-0.2507,-0.2507,-0.2508,0,0,-0.2212,-0.223,-0.222,-0.2235,-0.2259,-0.2283,-0.228,-0.2312,-0.2326,-0.2324,-0.2361,-0.2364,-0.2376,-0.2392,-0.2401,-0.2353,-0.238,-0.2355,-0.2317,-0.2309,-0.2303,-0.2297,-0.228,-0.2273,-0.2352,-0.2351,-0.2351,0,-0.2172,-0.2176,-0.2211,-0.2209,-0.2217,-0.2261,-0.2252,-0.2265,-0.2291,-0.2295,-0.2314,-0.233,-0.2349,-0.2343,-0.2331,-0.2337,-0.2336,-0.2351,-0.2301,-0.2295,-0.2291,-0.2275,-0.2268,-0.2348,-0.2348,-0.2349,-0.2349,0,-0.2125,-0.2127,-0.2116,-0.214,-0.2147,-0.2141,-0.2176,-0.2179,-0.2202,-0.2224,-0.2222,-0.2246,-0.2261,-0.2262,-0.2285,-0.2259,-0.2268,-0.2293,-0.2325,-0.2279,-0.2265,-0.2259,-0.2343,-0.2345,-0.2346,-0.2346,0,0,-0.2035,-0.2079,-0.2074,-0.2085,-0.2115,-0.2117,-0.2113,-0.2128,-0.2129,-0.2146,-0.2144,-0.2153,-0.2176,-0.2187,-0.2212,-0.2206,-0.2166,-0.2231,-0.2232,-0.2218,-0.2139,-0.2121,-0.2113,-0.2185,-0.2184,-0.2183,-0.2138,0,-0.1987,-0.1983,-0.2015,-0.2002,-0.2004,-0.2046,-0.2043,-0.2061,-0.2081,-0.2087,-0.211,-0.2116,-0.2146,-0.2152,-0.2148,-0.2172,-0.2151,-0.2176,-0.2184,-0.2184,-0.2177,-0.2106,-0.2086,-0.2042,-0.2132,-0.2131,-0.2131,0,-0.193,-0.1943,-0.193,-0.1961,-0.1963,-0.1959,-0.1975,-0.198,-0.2001,-0.2017,-0.2028,-0.2057,-0.2056,-0.2086,-0.2086,-0.2102,-0.2107,-0.212,-0.2119,-0.2121,-0.2154,-0.2106,-0.2029,-0.2022,-0.2122,-0.2123,-0.2124,0,-0.1866,-0.188,-0.1875,-0.1883,-0.1918,-0.1915,-0.1929,-0.1952,-0.1959,-0.1973,-0.1977,-0.1991,-0.1998,-0.2009,-0.2041,-0.206,-0.2036,-0.207,-0.2049,-0.2049,-0.2043,-0.2043,-0.1965,-0.2046,-0.2046,-0.2046,-0.2046,0,-0.1809,-0.18,-0.1846,-0.1842,-0.1833,-0.187,-0.186,-0.1879,-0.1899,-0.19,-0.1937,-0.1938,-0.198,-0.1985,-0.201,-0.2006,-0.2009,-0.2022,-0.2029,-0.2018,-0.2017,-0.2023,-0.2026,-0.2044,-0.2044,-0.2045,-0.2045,0,-0.1736,-0.1767,-0.1763,-0.1797,-0.1805,-0.1797,-0.1826,-0.1824,-0.1847,-0.1848,-0.185,-0.1886,-0.1894,-0.1927,-0.1943,-0.196,-0.1948,-0.1961,-0.194,-0.1945,-0.1923,-0.1924,-0.1847,-0.1838,-0.1923,-0.1923,-0.1922,0,-0.1697,-0.1691,-0.1724,-0.1727,-0.174,-0.1745,-0.1752,-0.1788,-0.1794,-0.1818,-0.1813,-0.1824,-0.1835,-0.1846,-0.1874,-0.1886,-0.19,-0.1872,-0.1902,-0.1892,-0.19,-0.19,-0.19,-0.1865,-0.1864,-0.1863,-0.1863,0,-0.1626,-0.1642,-0.165,-0.1663,-0.167,-0.1683,-0.1697,-0.1698,-0.1739,-0.1743,-0.1752,-0.176,-0.1776,-0.1787,-0.1804,-0.182,-0.1848,-0.1853,-0.1849,-0.1839,-0.1827,-0.1833,-0.1923,-0.1854,-0.1855,-0.1856,-0.1856,-0.1857,-0.1569,-0.1566,-0.1588,-0.1596,-0.1611,-0.1624,-0.1624,-0.1647,-0.1654,-0.167,-0.1691,-0.1697,-0.1719,-0.1745,-0.1758,-0.1764,-0.178,-0.1774,-0.1773,-0.1771,-0.1766,-0.1826,-0.1767,-0.1767,-0.1768,-0.1768,-0.1768,0,-0.15,-0.1516,-0.1523,-0.1543,-0.1549,-0.1575,-0.1592,-0.1596,-0.16,-0.1618,-0.1628,-0.1638,-0.1648,-0.1677,-0.169,-0.1689,-0.1702,-0.1691,-0.1692,-0.1695,-0.1751,-0.1753,-0.168,-0.168,-0.168,-0.1681,-0.1681,-0.1681,-0.1465,-0.146,-0.1478,-0.1481,-0.1498,-0.1503,-0.1511,-0.1524,-0.1538,-0.1547,-0.1556,-0.1574,-0.1597,-0.1612,-0.1623,-0.1631,-0.1635,-0.1619,-0.1632,-0.1683,-0.1691,-0.1699,-0.1702,-0.162,-0.162,-0.1576,-0.1576,-0.1575]}]]